Location: Newark
(45.2500°N, 7.5833°E)
Time: 17:05:15
(UTC+00:00)

Tiros 1 despin weight - Pass Details

Date: 29 January 2020
Orbit: 594 x 642 km, 48.2° (Epoch: 23 February)

Event Time Altitude Azimuth Distance (km) Brightness Sun altitude
Rises 09:02:15 0° 222° (SW) 2,833 ? 17.0°
Reaches altitude 10° 09:04:37 10° 215° (SW) 1,940 ? 17.3°
Maximum altitude 09:08:47 40° 146° (SSE) 906 ? 17.7°
Drops below altitude 10° 09:13:01 10° 78° (ENE) 1,975 ? 18.2°
Sets 09:15:26 0° 71° (ENE) 2,892 ? 18.4°
